Regional Weather Roundup
Issued by NWS

Home | Current Version | Previous Version | Graphics & Text | Print | Product List | Glossary Off
Versions: 1 2 3 4 5 6 7 8 9 10 11 12 13 14 15 16 17 18 19 20 21 22 23 24 25 26 27 28 29 30 31 32 33 34 35 36 37 38 39 40 41 42 43 44 45 46 47 48 49 50

000
ASUS43 KMPX 290710
RWRMN
WEATHER ROUNDUP FOR MINNESOTA
NATIONAL WEATHER SERVICE TWIN CITIES/CHANHASSEN MN
200 AM CDT WED JUL 29 2015


NOTE: "FAIR" INDICATES FEW OR NO CLOUDS BELOW 12,000 FEET WITH NO
SIGNIFICANT WEATHER AND/OR OBSTRUCTIONS TO VISIBILITY. N/A MEANS
CURRENT SKY AND/OR WEATHER CONDITIONS ARE NOT AVAILABLE.

MNZ060>063-068>070-290800-
   Twin Cities Metro

CITY           SKY/WX    TMP DP  RH WIND       PRES   REMARKS
TWIN CITIES    PTCLDY    70  59  68 SW9       29.93S
ST PAUL        PTCLDY    69  60  73 SW7       29.93S
CRYSTAL        CLEAR     70  57  63 SW8       29.90F
BLAINE         CLEAR     72  57  60 SW8       29.91F
LAKEVILLE      PTCLDY    64  59  82 SW5       29.95S
EDEN PRAIRIE   CLEAR     66  60  81 SW7       29.93S
SOUTH ST PAUL  PTCLDY    69  59  69 SW6       29.93S
LAKE ELMO      FAIR      64  59  82 S7        29.93F
$$
MNZ001>005-007-008-013>017-022>024-027-028-290800-
   Northwest Minnesota

CITY           SKY/WX    TMP DP  RH WIND       PRES   REMARKS
BEMIDJI        CLOUDY    64  48  55 SW13G32   29.67F
HALLOCK        MOCLDY    64  57  77 W21G31    29.44R
ROSEAU         CLOUDY    59  54  82 SW24G32   29.47S
WARROAD        LGT RAIN  59  55  88 S21G28    29.47F
THIEF RVR FALL CLOUDY    63  54  72 SW21G32   29.58S
CROOKSTON      CLOUDY    64  54  68 W23G35    29.61S
FOSSTON        CLOUDY    61  52  72 SW24G32   29.67F
DETROIT LAKES  CLOUDY    64  48  55 W26G36    29.78S
MOORHEAD       CLOUDY    64  50  59 W20G30    29.76S
PARK RAPIDS    MOCLDY    66  46  48 W25G35    29.75F
MAHNOMEN       CLOUDY    63  50  64 SW20G32   29.71F
$$
MNZ006-009>011-018-025>026-290800-
   North Central Minnesota

CITY           SKY/WX    TMP DP  RH WIND       PRES   REMARKS
BAUDETTE       CLOUDY    65  49  56 SW26G37   29.52F
FLAG ISLAND    CLOUDY    64  55  72 S20G36    29.42S
INTL FALLS     MOCLDY    65  49  56 SW22G32   29.58F
WASKISH        CLOUDY    66  52  59 SW31G45   29.60F
BIG FORK       CLEAR     66  48  52 SW13G25   29.65F
LONGVILLE      CLEAR     66  48  52 SW17G30   29.74F
GRAND RAPIDS   CLEAR     66  46  48 SW13G26   29.72F
CRANE LAKE     CLEAR    N/A N/A N/A S8        29.64F
ORR            CLEAR     64  48  55 S8        29.62F
COOK           CLEAR     66  52  59 SW14G20   29.67F
WALKER         CLOUDY    65  47  51 SW20G30   29.71F
$$
MNZ012-019>021-037-290800-
   Northeast Minnesota

CITY           SKY/WX    TMP DP  RH WIND       PRES   REMARKS
DULUTH         CLEAR     67  54  63 SW14G20   29.78F
ELY            CLEAR     66  52  59 SW10G20   29.70F
HIBBING        CLEAR     64  50  60 S7        29.70F
EVELETH        CLEAR     63  50  63 SW12      29.73F
DULUTH HARBOR  PTCLDY    70  57  64 SW10      29.77F
TWO HARBORS    CLEAR     70  57  64 SW10      29.74F
SILVER BAY     CLEAR     64  57  77 SW5       29.74S
GRAND MARAIS     N/A     56  55  97 W3        29.71F
G MARAIS ARPRT   N/A     64  54  68 SW5       29.76F
$$
MNZ029>031-032-039>041-046>048-054>057-064-290800-
   West Central Minnesota

CITY           SKY/WX    TMP DP  RH WIND       PRES   REMARKS
FERGUS FALLS   CLEAR     64  48  55 W23G31    29.82F
WHEATON        CLEAR     64  48  55 W9G17     29.91R
MORRIS         CLEAR     64  54  68 SW16G22   29.89F
ALEXANDRIA     CLEAR     66  50  56 SW16      29.88F
ELBOW LAKE     FAIR      61  51  69 SW10G16   29.87F
WADENA         CLEAR     64  48  55 SW16G31   29.80F
GLENWOOD       CLEAR     66  48  52 SW16G22   29.89F
APPLETON       CLEAR     66  52  59 SW12      29.92F
BENSON         CLEAR     63  52  67 W8        29.92F
ORTONVILLE     CLEAR     63  52  67 SW10G17   29.93S
MADISON        CLEAR     61  54  77 SW10      29.95F
WILLMAR        FAIR      64  55  72 SW10      29.95F
$$
MNZ033>034-036-042>043-049>051-058-059-290800-
   Central Minnesota

CITY           SKY/WX    TMP DP  RH WIND       PRES   REMARKS
ST CLOUD       CLEAR     67  51  56 W10       29.88F
SAUK CENTRE    FAIR      61  53  74 SW10      29.89F
PAYNESVILLE    CLEAR     62  52  70 S10       29.91F
AITKIN         CLEAR     70  48  46 SW13G28   29.77F
PINE RIVER     CLEAR     66  48  52 SW10G21   29.80F
BRAINERD       CLEAR     67  48  50 SW20G32   29.80F
STAPLES        CLEAR     64  46  52 SW16G33   29.81F
LONG PRAIRIE   FAIR      63  50  63 SW13G21   29.87F
LITTLE FALLS   CLEAR     66  46  48 SW7       29.85F
LITCHFIELD     CLEAR     70  54  56 W10G21    29.93S
BUFFALO        CLEAR     65  58  77 SW6       29.93S
MAPLE LAKE     CLEAR     66  57  72 SW3       29.93R
$$
MNZ037-044-045-052-053-290800-
   East Central Minnesota

CITY           SKY/WX    TMP DP  RH WIND       PRES   REMARKS
PRINCETON      CLEAR     66  55  68 SW6       29.88F
MORA           CLEAR     64  54  68 SW8       29.87F
CAMBRIDGE      CLEAR     68  55  64 S7        29.87S
RUSH CITY      PTCLDY    66  56  68 SW7       29.88F
MOOSE LAKE     CLEAR     63  54  72 SW7       29.80F
HINCKLEY       FAIR      63  57  82 SW8       29.85F
CLOQUET        CLEAR     64  52  63 S8        29.79F
MCGREGOR       CLEAR     66  50  55 SW15G22   29.79F
$$
MNZ071>073-080-081-089-090-097-098-290800-
   Southwest Minnesota

CITY           SKY/WX    TMP DP  RH WIND       PRES   REMARKS
MONTEVIDEO     CLEAR     63  54  72 W10       29.97S
GRANITE FALLS  CLEAR     61  55  78 CALM      29.98F
CANBY          CLEAR     64  52  66 SW9       29.99F
MARSHALL       CLEAR     63  52  67 W12       30.00F
REDWOOD FALLS  CLEAR     66  54  65 W10       29.96F
OLIVIA         CLEAR     61  52  72 W10       29.95F
PIPESTONE      CLEAR     61  54  77 W3        30.05S
WINDOM         CLEAR     61  55  82 W6        30.03R
WORTHINGTON    CLEAR     59  54  82 W7        30.06R
JACKSON        CLEAR     61  55  82 W6        30.04R
TRACY          CLEAR     66  55  68 W6        30.01F
SLAYTON        CLEAR     63  54  73 CALM      30.04F
$$
MNZ065>067-074>077-082>085-091>093-290800-
   South Central Minnesota

CITY           SKY/WX    TMP DP  RH WIND       PRES   REMARKS
MANKATO        CLEAR     64  57  77 SW8       29.98S
NEW ULM        CLEAR     61  57  88 W6        29.98S
ST JAMES       CLEAR     64  57  77 SW8       30.01S
FAIRMONT       CLEAR     64  55  72 W7        30.02R
GLENCOE        CLEAR     64  58  81 SW8       29.95S
FARIBAULT      PTCLDY    66  61  82 SW5       29.98S
OWATONNA       PTCLDY    64  59  82 W8        29.99S
WASECA         PTCLDY    59  57  94 SW6       30.01S
ALBERT LEA     MOCLDY    66  61  82 W5        30.00S
$$
MNZ078>079-086>088-094>096-290800-
   Southeast Minnesota

CITY           SKY/WX    TMP DP  RH WIND       PRES   REMARKS
ROCHESTER      CLOUDY    65  62  90 W9        29.98F
RED WING       MOCLDY    70  61  73 W6        29.92S
STANTON        PTCLDY    68  60  75 W7        29.95S
DODGE CENTER   MOCLDY    64  61  88 W9        29.99R
WINONA         CLOUDY    73  63  68 NW6       29.93F
AUSTIN         CLOUDY    66  63  88 SW3       29.99R
PRESTON        CLOUDY    69  62  79 NW7       29.99R
$$
ABBREVIATIONS USED IN REMARKS
   TC - TEMPERATURES IN CELSIUS
  WCI - WIND CHILL INDEX
   HX - HEAT INDEX
  VSB - VISIBILITY
$$


USA.gov is the U.S. government's official web portal to all federal, state and local government web resources and services.